This is the latest recevied weather packets stored in our database for station/object OE9FWV-10. If no packets are shown the sender has not sent any weather packets the latest 10 day(s).
| Time | Temp. | Humidity | Pressure | Rain* | Wind** | Luminosity | Snow |
|---|---|---|---|---|---|---|---|
| 1787473284 | 23.33° C | 35% | 1025.7 hPa | - | - | - | - |
| 1787472383 | 23.33° C | 36% | 1025.8 hPa | - | - | - | - |
| 1787471483 | 22.78° C | 36% | 1025.9 hPa | - | - | - | - |
| 1787470583 | 22.78° C | 37% | 1025.9 hPa | - | - | - | - |
| 1787469682 | 22.22° C | 37% | 1025.9 hPa | - | - | - | - |
| 1787468780 | 22.78° C | 37% | 1025.9 hPa | - | - | - | - |
| 1787467880 | 22.78° C | 36% | 1025.9 hPa | - | - | - | - |
| 1787466979 | 22.22° C | 37% | 1025.9 hPa | - | - | - | - |
| 1787466078 | 22.78° C | 36% | 1025.8 hPa | - | - | - | - |
| 1787465177 | 22.78° C | 36% | 1025.7 hPa | - | - | - | - |
| 1787464277 | 22.78° C | 35% | 1025.8 hPa | - | - | - | - |
| 1787463376 | 23.89° C | 33% | 1025.5 hPa | - | - | - | - |
| 1787462476 | 24.44° C | 35% | 1025.5 hPa | - | - | - | - |
| 1787461575 | 24.44° C | 36% | 1025.3 hPa | - | - | - | - |
| 1787460674 | 24.44° C | 36% | 1025.2 hPa | - | - | - | - |
| 1787459774 | 24.44° C | 36% | 1025.1 hPa | - | - | - | - |
| 1787458874 | 24.44° C | 36% | 1025 hPa | - | - | - | - |
| 1787457974 | 24.44° C | 36% | 1024.8 hPa | - | - | - | - |
| 1787457073 | 24.44° C | 36% | 1024.8 hPa | - | - | - | - |
| 1787456172 | 24.44° C | 36% | 1025 hPa | - | - | - | - |
| 1787455272 | 24.44° C | 36% | 1024.9 hPa | - | - | - | - |
| 1787454371 | 24.44° C | 36% | 1024.9 hPa | - | - | - | - |
| 1787453470 | 24.44° C | 36% | 1024.9 hPa | - | - | - | - |
| 1787452570 | 24.44° C | 36% | 1024.9 hPa | - | - | - | - |
| 1787451669 | 24.44° C | 36% | 1025 hPa | - | - | - | - |
* Rain since midnight (hover to see other rain measurements)
** Current wind speed in m/s (hover to see current wind gust speed)